| time (UTC) | temp C | wind direction | speed KPH | gust KPH | rain 1hr cm | rain 24hr cm | rain mn cm | humidity % | barometer mb |
| 20260509212131 | 18 | 34 | 4.8 | 11.3 | 0.00 | 0.30 | 0.30 | 55 | 1007.5 |
| 20260509211109 | 18 | 37 | 6.4 | 14.5 | 0.00 | 0.30 | 0.30 | 57 | 1007.6 |
| 20260509210129 | 18 | 45 | 4.8 | 19.3 | 0.00 | 0.30 | 0.30 | 57 | 1007.7 |
| 20260509205137 | 18 | 54 | 4.8 | 19.3 | 0.00 | 0.30 | 0.30 | 58 | 1007.7 |
| 20260509202939 | 18 | 38 | 3.2 | 11.3 | 0.00 | 0.30 | 0.30 | 58 | 1007.9 |
| 20260509201918 | 17 | 71 | 4.8 | 16.1 | 0.00 | 0.30 | 0.30 | 59 | 1007.9 |
| 20260509195817 | 17 | 94 | 3.2 | 16.1 | 0.00 | 0.30 | 0.30 | 58 | 1008.1 |
| 20260509193714 | 17 | 108 | 3.2 | 17.7 | 0.00 | 0.30 | 0.30 | 55 | 1008.4 |
| 20260509191548 | 16 | 56 | 3.2 | 14.5 | 0.00 | 0.30 | 0.30 | 51 | 1008.9 |
| 20260509190555 | 16 | 85 | 3.2 | 14.5 | 0.00 | 0.30 | 0.30 | 49 | 1009.1 |
| 20260509185523 | 16 | 15 | 3.2 | 14.5 | 0.00 | 0.30 | 0.30 | 35 | 1009.2 |
| 20260509184523 | 15 | 92 | 4.8 | 14.5 | 0.00 | 0.30 | 0.30 | 37 | 1009.2 |
| 20260509182340 | 15 | 91 | 1.6 | 8.0 | 0.00 | 0.30 | 0.30 | 17 | 1009.3 |
| 20260509181354 | 14 | 104 | 3.2 | 8.0 | 0.00 | 0.30 | 0.30 | 20 | 1009.4 |
| 20260509175217 | 13 | 51 | 3.2 | 9.7 | 0.00 | 0.30 | 0.30 | 14 | 1009.3 |
| 20260509174232 | 13 | 108 | 1.6 | 9.7 | 0.00 | 0.30 | 0.30 | 6 | 1009.3 |
| 20260509173215 | 13 | 22 | 1.6 | 11.3 | 0.00 | 0.30 | 0.30 | 1 | 1009.4 |
| 20260509172218 | 13 | 44 | 3.2 | 12.9 | 0.00 | 0.30 | 0.30 | 1 | 1009.2 |
| 20260509171149 | 13 | 52 | 3.2 | 12.9 | 0.00 | 0.30 | 0.30 | 1 | 1009.2 |
| 20260509170140 | 13 | 50 | 1.6 | 8.0 | 0.00 | 0.30 | 0.30 | 1 | 1009.1 |
| 20260509163930 | 12 | 52 | 0.0 | 4.8 | 0.00 | 0.30 | 0.30 | 1 | 1009.0 |
| 20260509161843 | 12 | 44 | 0.0 | 4.8 | 0.00 | 0.30 | 0.30 | 1 | 1008.6 |
| 20260509160845 | 12 | 52 | 0.0 | 6.4 | 0.00 | 0.30 | 0.30 | 1 | 1008.8 |
| 20260509155822 | 12 | 41 | 1.6 | 14.5 | 0.00 | 0.30 | 0.30 | 1 | 1008.8 |
| 20260509154754 | 11 | 48 | 1.6 | 14.5 | 0.00 | 0.30 | 0.30 | 1 | 1008.6 |
| 20260509153756 | 11 | 48 | 1.6 | 9.7 | 0.00 | 0.30 | 0.30 | 1 | 1008.5 |
| 20260509152727 | 11 | 62 | 1.6 | 9.7 | 0.00 | 0.30 | 0.30 | 1 | 1008.5 |
| 20260509151714 | 11 | 51 | 1.6 | 6.4 | 0.00 | 0.30 | 0.30 | 1 | 1008.3 |
| 20260509150643 | 11 | 51 | 3.2 | 11.3 | 0.00 | 0.30 | 0.30 | 1 | 1008.8 |
| 20260509145632 | 11 | 31 | 3.2 | 11.3 | 0.00 | 0.30 | 0.30 | 1 | 1009.0 |
| 20260509144635 | 11 | 67 | 4.8 | 14.5 | 0.10 | 0.25 | 0.25 | 1 | 1009.1 |
| 20260509143644 | 11 | 43 | 3.2 | 14.5 | 0.10 | 0.25 | 0.25 | 1 | 1009.1 |
| 20260509141448 | 11 | 63 | 3.2 | 11.3 | 0.00 | 0.23 | 0.23 | 1 | 1009.0 |
| 20260509134153 | 10 | 40 | 4.8 | 16.1 | 0.10 | 0.15 | 0.15 | 1 | 1009.1 |
| 20260509132011 | 10 | 44 | 4.8 | 16.1 | 0.10 | 0.15 | 0.15 | 1 | 1009.3 |
| 20260509125847 | 10 | 30 | 3.2 | 9.7 | 0.10 | 0.10 | 0.10 | 1 | 1009.3 |
| 20260509124837 | 10 | 50 | 1.6 | 9.7 | 0.00 | 0.08 | 0.08 | 1 | 1009.4 |
| 20260509123844 | 10 | 51 | 1.6 | 8.0 | 0.00 | 0.08 | 0.08 | 1 | 1009.5 |
| 20260509122813 | 10 | 51 | 1.6 | 8.0 | 0.00 | 0.05 | 0.05 | 1 | 1009.5 |
| 20260509120706 | 10 | 49 | 0.0 | 8.0 | 0.00 | 0.03 | 0.03 | 1 | 1009.6 |
| 20260509115725 | 10 | 38 | 0.0 | 8.0 | 0.00 | 0.03 | 0.03 | 1 | 1009.5 |
| 20260509114706 | 10 | 49 | 1.6 | 8.0 | 0.00 | 0.03 | 0.03 | 1 | 1009.5 |
| 20260509113639 | 10 | 51 | 1.6 | 11.3 | 0.00 | 0.03 | 0.03 | 1 | 1009.4 |
| 20260509111545 | 10 | 53 | 0.0 | 6.4 | 0.00 | 0.03 | 0.03 | 1 | 1009.4 |
| 20260509110513 | 10 | 53 | 1.6 | 8.0 | 0.00 | 0.03 | 0.03 | 1 | 1009.3 |
| 20260509105502 | 10 | 53 | 1.6 | 9.7 | 0.00 | 0.03 | 0.03 | 1 | 1009.2 |
| 20260509104429 | 10 | 52 | 1.6 | 9.7 | 0.00 | 0.03 | 0.03 | 1 | 1009.2 |
| 20260509103358 | 10 | 46 | 1.6 | 11.3 | 0.00 | 0.03 | 0.03 | 1 | 1009.2 |
| 20260509102326 | 10 | 46 | 3.2 | 17.7 | 0.00 | 0.00 | 0.03 | 1 | 1009.1 |
| 20260509101313 | 10 | 44 | 4.8 | 17.7 | 0.00 | 0.00 | 0.00 | 1 | 1009.3 |
| 20260509095116 | 11 | 47 | 3.2 | 14.5 | 0.00 | 0.00 | 0.00 | 4 | 1009.3 |
| 20260509094136 | 11 | 38 | 4.8 | 14.5 | 0.00 | 0.00 | 0.00 | 13 | 1009.4 |
| 20260509093148 | 11 | 35 | 3.2 | 12.9 | 0.00 | 0.00 | 0.00 | 18 | 1009.4 |
| 20260509092131 | 11 | 45 | 4.8 | 12.9 | 0.00 | 0.00 | 0.00 | 23 | 1009.6 |
| 20260509091154 | 11 | 39 | 4.8 | 14.5 | 0.00 | 0.00 | 0.00 | 26 | 1009.7 |
| 20260509090215 | 11 | 49 | 6.4 | 14.5 | 0.00 | 0.00 | 0.00 | 35 | 1009.8 |
| 20260509085227 | 11 | 27 | 4.8 | 14.5 | 0.00 | 0.00 | 0.00 | 37 | 1009.8 |
| 20260509084155 | 11 | 67 | 4.8 | 17.7 | 0.00 | 0.00 | 0.00 | 41 | 1009.8 |
| 20260509083120 | 11 | 65 | 3.2 | 12.9 | 0.00 | 0.00 | 0.00 | 41 | 1009.8 |
| 20260509082051 | 11 | 55 | 1.6 | 8.0 | 0.00 | 0.00 | 0.00 | 33 | 1009.8 |
| 20260509075958 | 10 | 106 | 0.0 | 0.0 | 0.00 | 0.00 | 0.00 | 1 | 1009.3 |
| 20260509075007 | 10 | 109 | 0.0 | 0.0 | 0.00 | 0.00 | 0.00 | 1 | 1009.1 |
| 20260509074026 | 10 | 104 | 0.0 | 3.2 | 0.00 | 0.00 | 0.00 | 1 | 1009.1 |
| 20260509073034 | 10 | 113 | 0.0 | 0.0 | 0.00 | 0.00 | 0.00 | 1 | 1008.8 |
| 20260509072045 | 10 | 114 | 0.0 | 0.0 | 0.00 | 0.00 | 0.00 | 1 | 1008.5 |
| 20260509071045 | 10 | 114 | 0.0 | 0.0 | 0.00 | 0.00 | 0.00 | 1 | 1008.6 |
| 20260509070030 | 10 | 113 | 0.0 | 0.0 | 0.00 | 0.00 | 0.00 | 1 | 1008.5 |
| 20260509065032 | 10 | 244 | 0.0 | 0.0 | 0.00 | 0.00 | 0.00 | 1 | 1008.7 |
| 20260509064013 | 10 | 245 | 0.0 | 0.0 | 0.00 | 0.00 | 0.00 | 1 | 1008.8 |
| 20260509063030 | 10 | 245 | 0.0 | 0.0 | 0.00 | 0.00 | 0.00 | 3 | 1009.0 |
| 20260509062043 | 10 | 245 | 0.0 | 0.0 | 0.00 | 0.00 | 0.00 | 4 | 1009.1 |
| 20260509061024 | 10 | 245 | 0.0 | 0.0 | 0.00 | 0.00 | 0.00 | 1 | 1009.4 |
| 20260509060004 | 10 | 305 | 0.0 | 0.0 | 0.00 | 0.00 | 0.00 | 1 | 1009.5 |
| 20260509054951 | 10 | 122 | 0.0 | 0.0 | 0.00 | 0.00 | 0.00 | 1 | 1009.8 |
| 20260509054004 | 10 | 123 | 0.0 | 0.0 | 0.00 | 0.00 | 0.00 | 1 | 1009.9 |
| 20260509052930 | 10 | 168 | 0.0 | 0.0 | 0.00 | 0.00 | 0.00 | 1 | 1009.8 |
| 20260509051949 | 10 | 168 | 0.0 | 0.0 | 0.00 | 0.00 | 0.00 | 1 | 1010.0 |
| 20260509050923 | 10 | 168 | 0.0 | 0.0 | 0.00 | 0.00 | 0.00 | 1 | 1010.1 |
| 20260509045912 | 10 | 175 | 0.0 | 0.0 | 0.00 | 0.00 | 0.00 | 1 | 1010.0 |
| 20260509044843 | 10 | 175 | 0.0 | 0.0 | 0.00 | 0.00 | 0.00 | 1 | 1009.9 |
| 20260509043809 | 10 | 175 | 0.0 | 0.0 | 0.00 | 0.00 | 0.00 | 1 | 1009.9 |
| 20260509041649 | 10 | 175 | 0.0 | 0.0 | 0.00 | 0.00 | 0.00 | 1 | 1010.2 |
| 20260509040633 | 10 | 175 | 0.0 | 0.0 | 0.00 | 0.00 | 0.00 | 1 | 1010.3 |
| 20260509035603 | 10 | 175 | 0.0 | 0.0 | 0.00 | 0.00 | 0.00 | 1 | 1010.4 |
| 20260509034600 | 10 | 175 | 0.0 | 0.0 | 0.00 | 0.00 | 0.00 | 1 | 1010.6 |
| 20260509032427 | 10 | 175 | 0.0 | 0.0 | 0.00 | 0.00 | 0.00 | 4 | 1011.1 |
| 20260509031427 | 11 | 175 | 0.0 | 0.0 | 0.00 | 0.00 | 0.00 | 16 | 1011.1 |
| 20260509030407 | 11 | 156 | 0.0 | 0.0 | 0.00 | 0.00 | 0.00 | 22 | 1011.2 |
| 20260509025338 | 11 | 156 | 0.0 | 0.0 | 0.00 | 0.00 | 0.00 | 29 | 1011.3 |
| 20260509024310 | 11 | 115 | 0.0 | 0.0 | 0.00 | 0.00 | 0.00 | 31 | 1011.3 |
| 20260509023328 | 11 | 115 | 0.0 | 0.0 | 0.00 | 0.00 | 0.00 | 26 | 1011.4 |
| 20260509020106 | 11 | 269 | 0.0 | 0.0 | 0.00 | 0.00 | 0.00 | 42 | 1011.2 |
| 20260509015104 | 11 | 269 | 0.0 | 0.0 | 0.00 | 0.00 | 0.00 | 46 | 1011.1 |
| 20260509014056 | 11 | 269 | 0.0 | 0.0 | 0.00 | 0.00 | 0.00 | 49 | 1010.9 |
| 20260509011932 | 12 | 269 | 0.0 | 0.0 | 0.00 | 0.00 | 0.00 | 54 | 1010.6 |
| 20260509010933 | 12 | 269 | 0.0 | 0.0 | 0.00 | 0.00 | 0.00 | 56 | 1010.2 |
| 20260509005912 | 12 | 269 | 0.0 | 0.0 | 0.00 | 0.00 | 0.00 | 59 | 1010.2 |
| 20260509004902 | 12 | 269 | 0.0 | 0.0 | 0.00 | 0.00 | 0.00 | 59 | 1010.0 |
| 20260509002706 | 12 | 269 | 0.0 | 0.0 | 0.00 | 0.00 | 0.00 | 61 | 1010.0 |
| 20260509001654 | 12 | 269 | 0.0 | 0.0 | 0.00 | 0.00 | 0.00 | 61 | 1010.1 |
| 20260509000647 | 12 | 178 | 0.0 | 0.0 | 0.00 | 0.00 | 0.00 | 61 | 1010.0 |
| 20260508234526 | 13 | 178 | 0.0 | 0.0 | 0.00 | 0.00 | 0.00 | 60 | 1010.2 |
| 20260508233517 | 13 | 178 | 0.0 | 0.0 | 0.00 | 0.00 | 0.00 | 61 | 1010.2 |
| 20260508232510 | 13 | 178 | 0.0 | 0.0 | 0.00 | 0.00 | 0.00 | 62 | 1010.2 |
| 20260508231436 | 13 | 178 | 0.0 | 0.0 | 0.00 | 0.00 | 0.00 | 61 | 1010.1 |
| 20260508230426 | 14 | 178 | 0.0 | 0.0 | 0.00 | 0.00 | 0.00 | 60 | 1010.2 |
| 20260508225443 | 14 | 178 | 0.0 | 0.0 | 0.00 | 0.00 | 0.00 | 59 | 1010.2 |
| 20260508224436 | 15 | 178 | 0.0 | 0.0 | 0.00 | 0.00 | 0.00 | 58 | 1010.3 |
| 20260508222313 | 15 | 178 | 0.0 | 1.6 | 0.00 | 0.00 | 0.00 | 57 | 1010.1 |
| 20260508221336 | 15 | 236 | 0.0 | 0.0 | 0.00 | 0.00 | 0.00 | 56 | 1010.0 |
| 20260508220336 | 15 | 346 | 0.0 | 1.6 | 0.00 | 0.00 | 0.00 | 55 | 1010.1 |
| 20260508215322 | 15 | 102 | 0.0 | 0.0 | 0.00 | 0.00 | 0.00 | 54 | 1010.1 |
| 20260508214253 | 15 | 102 | 0.0 | 0.0 | 0.00 | 0.00 | 0.00 | 54 | 1010.3 |
| 20260508213224 | 15 | 102 | 0.0 | 0.0 | 0.00 | 0.00 | 0.00 | 54 | 1010.3 |